This demonstration page uses our WeatherBlox Daily Observations layout. Learn more.

Left ArrowRight Arrow

Hourly Observations for January 19, 2020

Temp ( °F °C ) Dew Point ( °F °C ) Humidity (%) Winds ( mph kmh ) Pressure ( in mb ) Visibility ( mi km ) Precip ( " mm )
12:53 am 00:53 Clear -5 -20.6 -12 -24.4 72 72 ENE 12 19 30.62 1037 10 16 0.00 0.00
1:53 am 01:53 Clear -6 -21.1 -13 -25 71 71 E 8 13 30.63 1037 10 16 0.00 0.00
2:53 am 02:53 Clear -7 -21.7 -14 -25.6 71 71 ENE 9 15 30.63 1037 10 16 0.00 0.00
3:53 am 03:53 Clear -7 -21.7 -14 -25.6 71 71 E 5 7 30.64 1038 10 16 0.00 0.00
4:53 am 04:53 Clear -7 -21.7 -14 -25.6 71 71 Calm 30.65 1038 10 16 0.00 0.00
5:53 am 05:53 Clear -8 -22.2 -14 -25.6 74 74 Calm 30.65 1038 10 16 0.00 0.00
6:53 am 06:53 Clear -9 -22.8 -14 -25.6 78 78 Calm 30.66 1038 10 16 0.00 0.00
7:53 am 07:53 Clear -9 -22.8 -14 -25.6 78 78 Calm 30.66 1038 10 16 0.00 0.00
8:53 am 08:53 Sunny -7 -21.7 -12 -24.4 79 79 Calm 30.66 1038 10 16 0.00 0.00
9:53 am 09:53 Sunny -2 -18.9 -11 -23.9 65 65 NE 5 7 30.64 1038 10 16 0.00 0.00
10:53 am 10:53 Sunny 0 -17.8 -9 -22.8 65 65 E 5 7 30.63 1037 10 16 0.00 0.00
11:53 am 11:53 Sunny 2 -16.7 -7 -21.7 65 65 E 5 7 30.61 1037 10 16 0.00 0.00
12:53 pm 12:53 Sunny 5 -15 -5 -20.6 63 63 E 7 11 30.58 1036 10 16 0.00 0.00
1:53 pm 13:53 Sunny 5 -15 -3 -19.4 69 69 ENE 8 13 30.55 1035 10 16 0.00 0.00
2:53 pm 14:53 Sunny 7 -13.9 -1 -18.3 70 70 ENE 12 19 30.54 1034 10 16 0.00 0.00
3:53 pm 15:53 Sunny 7 -13.9 -2 -18.9 66 66 E 12 19 30.54 1034 10 16 0.00 0.00
4:53 pm 16:53 Sunny 5 -15 -2 -18.9 72 72 E 10 17 30.53 1034 10 16 0.00 0.00
5:53 pm 17:53 Clear 4 -15.6 -3 -19.4 73 73 ENE 7 11 30.54 1034 10 16 0.00 0.00
6:53 pm 18:53 Clear 3 -16.1 -3 -19.4 76 76 E 9 15 30.53 1034 10 16 0.00 0.00
7:53 pm 19:53 Clear 3 -16.1 -3 -19.4 76 76 E 8 13 30.53 1034 10 16 0.00 0.00
8:53 pm 20:53 Clear 2 -16.7 -4 -20 76 76 ENE 3 6 30.52 1033 10 16 0.00 0.00
9:53 pm 21:53 Clear 2 -16.7 -4 -20 76 76 E 5 7 30.49 1033 10 16 0.00 0.00
10:53 pm 22:53 Clear 1 -17.2 -4 -20 79 79 E 6 9 30.47 1032 10 16 0.00 0.00
11:53 pm 23:53 Clear 1 -17.2 -4 -20 79 79 E 7 11 30.46 1031 10 16 0.00 0.00

Powered by AerisWeather